When you browse on this site, cookies collect data to enhance your experience and personalize the content and advertising you see.
Visit our Privacy Policy to learn more. By continuing to use the site, you agree to this use of cookies and data.
EN

Hourly Weather Aberlady

Today, 9 July, Thursday

Time Temperature Precipitation Wind Pressure Humidity
00:00 +10°C° 0 mm 2 mps 755 mmHg 88%
01:00 +10°C° 0 mm 2 mps 755 mmHg 89%
02:00 +9°C° 0 mm 2 mps 755 mmHg 90%
03:00 +8°C° 0 mm 2 mps 755 mmHg 91%
04:00 +10°C° 0 mm 1 mps 755 mmHg 89%
05:00 +11°C° 0 mm 1 mps 755 mmHg 88%
06:00 +11°C° 0 mm 1 mps 755 mmHg 87%
07:00 +13°C° 0 mm 1 mps 755 mmHg 81%
08:00 +14°C° 0 mm 1 mps 755 mmHg 74%
09:00 +15°C° 0 mm 1 mps 755 mmHg 68%
10:00 +16°C° 0 mm 1 mps 755 mmHg 66%
11:00 +16°C° 0 mm 2 mps 755 mmHg 65%
12:00 +17°C° 0 mm 2 mps 755 mmHg 63%
13:00 +17°C° 0.2 mm 3 mps 755 mmHg 66%
14:00 +17°C° 0.2 mm 3 mps 755 mmHg 68%
15:00 +17°C° 0.2 mm 3 mps 755 mmHg 71%
16:00 +16°C° 0.5 mm 3 mps 755 mmHg 76%
17:00 +14°C° 0.5 mm 3 mps 755 mmHg 81%
18:00 +13°C° 0.5 mm 3 mps 755 mmHg 86%
19:00 +13°C° 1.1 mm 3 mps 755 mmHg 89%
20:00 +12°C° 1.1 mm 3 mps 755 mmHg 91%
21:00 +11°C° 1.1 mm 3 mps 755 mmHg 94%
22:00 +11°C° 0.6 mm 3 mps 755 mmHg 94%
23:00 +10°C° 0.6 mm 3 mps 755 mmHg 95%

Tomorrow, 10 July, Friday

Time Temperature Precipitation Wind Pressure Humidity
00:00 +10°C° 0.6 mm 2 mps 755 mmHg 95%
01:00 +10°C° 0 mm 2 mps 755 mmHg 95%
02:00 +10°C° 0 mm 2 mps 755 mmHg 95%
03:00 +10°C° 0 mm 2 mps 755 mmHg 95%
04:00 +10°C° 0.2 mm 2 mps 755 mmHg 94%
05:00 +10°C° 0.2 mm 2 mps 756 mmHg 93%
06:00 +10°C° 0.2 mm 2 mps 756 mmHg 92%
07:00 +12°C° 0.1 mm 2 mps 756 mmHg 88%
08:00 +13°C° 0.1 mm 2 mps 756 mmHg 84%
09:00 +14°C° 0.1 mm 2 mps 757 mmHg 79%
10:00 +15°C° 0.2 mm 2 mps 757 mmHg 74%
11:00 +16°C° 0.2 mm 2 mps 757 mmHg 70%
12:00 +17°C° 0.2 mm 2 mps 757 mmHg 65%
13:00 +17°C° 0.3 mm 2 mps 757 mmHg 65%
14:00 +17°C° 0.3 mm 3 mps 758 mmHg 66%
15:00 +17°C° 0.3 mm 3 mps 758 mmHg 66%
16:00 +17°C° 0.4 mm 3 mps 758 mmHg 70%
17:00 +16°C° 0.4 mm 3 mps 758 mmHg 73%
18:00 +16°C° 0.4 mm 3 mps 758 mmHg 77%
19:00 +14°C° 0.2 mm 3 mps 758 mmHg 79%
20:00 +12°C° 0.2 mm 3 mps 759 mmHg 81%
21:00 +11°C° 0.2 mm 3 mps 760 mmHg 84%
22:00 +10°C° 0 mm 3 mps 760 mmHg 85%
23:00 +9°C° 0 mm 3 mps 760 mmHg 86%

Day after tomorrow, 11 July, Saturday

Time Temperature Precipitation Wind Pressure Humidity
00:00 +9°C° 0 mm 3 mps 760 mmHg 87%
01:00 +8°C° 0 mm 3 mps 760 mmHg 88%
02:00 +7°C° 0 mm 4 mps 761 mmHg 89%
03:00 +7°C° 0 mm 4 mps 761 mmHg 91%
04:00 +8°C° 0 mm 4 mps 761 mmHg 89%
05:00 +8°C° 0 mm 4 mps 761 mmHg 88%
06:00 +10°C° 0 mm 4 mps 761 mmHg 86%
07:00 +11°C° 0 mm 4 mps 762 mmHg 80%
08:00 +13°C° 0 mm 4 mps 762 mmHg 74%
09:00 +14°C° 0 mm 3 mps 763 mmHg 67%
10:00 +14°C° 0 mm 4 mps 763 mmHg 67%
11:00 +15°C° 0 mm 4 mps 763 mmHg 67%
12:00 +16°C° 0 mm 5 mps 763 mmHg 67%
13:00 +16°C° 0 mm 5 mps 763 mmHg 66%
14:00 +16°C° 0 mm 5 mps 764 mmHg 65%
15:00 +16°C° 0 mm 5 mps 764 mmHg 65%
16:00 +16°C° 0 mm 5 mps 764 mmHg 67%
17:00 +16°C° 0 mm 5 mps 764 mmHg 69%
18:00 +16°C° 0 mm 5 mps 764 mmHg 71%
19:00 +14°C° 0 mm 5 mps 764 mmHg 75%
20:00 +13°C° 0 mm 5 mps 764 mmHg 79%
21:00 +11°C° 0 mm 4 mps 764 mmHg 83%
22:00 +11°C° 0 mm 4 mps 764 mmHg 85%
23:00 +10°C° 0 mm 4 mps 764 mmHg 86%

12 July, Sunday

Time Temperature Precipitation Wind Pressure Humidity
00:00 +8°C° 0 mm 4 mps 764 mmHg 88%
01:00 +8°C° 0 mm 4 mps 764 mmHg 88%
02:00 +8°C° 0 mm 4 mps 764 mmHg 89%
03:00 +7°C° 0 mm 4 mps 764 mmHg 90%
04:00 +8°C° 0 mm 4 mps 764 mmHg 87%
05:00 +10°C° 0 mm 4 mps 764 mmHg 85%
06:00 +11°C° 0 mm 4 mps 764 mmHg 82%
07:00 +12°C° 0 mm 4 mps 764 mmHg 79%
08:00 +14°C° 0 mm 4 mps 764 mmHg 75%
09:00 +15°C° 0 mm 4 mps 764 mmHg 72%
10:00 +17°C° 0 mm 4 mps 764 mmHg 71%
11:00 +18°C° 0 mm 4 mps 764 mmHg 70%
12:00 +19°C° 0 mm 4 mps 764 mmHg 69%
13:00 +19°C° 0 mm 4 mps 764 mmHg 70%
14:00 +17°C° 0 mm 5 mps 764 mmHg 71%
15:00 +17°C° 0 mm 5 mps 763 mmHg 73%
16:00 +17°C° 0 mm 5 mps 763 mmHg 73%
17:00 +16°C° 0 mm 5 mps 763 mmHg 74%
18:00 +15°C° 0 mm 5 mps 763 mmHg 74%
19:00 +15°C° 0 mm 5 mps 763 mmHg 77%
20:00 +14°C° 0 mm 4 mps 763 mmHg 80%
21:00 +13°C° 0 mm 4 mps 763 mmHg 82%
22:00 +13°C° 0 mm 4 mps 763 mmHg 84%
23:00 +13°C° 0 mm 4 mps 762 mmHg 86%

13 July, Monday

Time Temperature Precipitation Wind Pressure Humidity
00:00 +13°C° 0 mm 4 mps 762 mmHg 88%
01:00 +13°C° 0 mm 4 mps 762 mmHg 88%
02:00 +13°C° 0 mm 4 mps 761 mmHg 89%
03:00 +13°C° 0 mm 4 mps 761 mmHg 89%
04:00 +13°C° 0 mm 5 mps 761 mmHg 86%
05:00 +13°C° 0 mm 5 mps 761 mmHg 84%
06:00 +13°C° 0 mm 5 mps 760 mmHg 81%
07:00 +14°C° 0 mm 6 mps 760 mmHg 81%
08:00 +14°C° 0 mm 6 mps 760 mmHg 81%
09:00 +15°C° 0 mm 6 mps 760 mmHg 81%
10:00 +14°C° 0.1 mm 5 mps 760 mmHg 83%
11:00 +14°C° 0.1 mm 5 mps 760 mmHg 85%
12:00 +14°C° 0.1 mm 5 mps 760 mmHg 87%
13:00 +14°C° 0 mm 5 mps 760 mmHg 86%
14:00 +14°C° 0 mm 5 mps 760 mmHg 85%
15:00 +14°C° 0 mm 5 mps 759 mmHg 85%
16:00 +15°C° 0 mm 5 mps 759 mmHg 84%
17:00 +15°C° 0 mm 5 mps 759 mmHg 83%
18:00 +15°C° 0 mm 5 mps 759 mmHg 82%
19:00 +14°C° 0 mm 5 mps 759 mmHg 84%
20:00 +14°C° 0 mm 5 mps 759 mmHg 86%
21:00 +13°C° 0 mm 4 mps 759 mmHg 88%
22:00 +13°C° 0 mm 4 mps 759 mmHg 90%
23:00 +13°C° 0 mm 4 mps 758 mmHg 91%

14 July, Tuesday

Time Temperature Precipitation Wind Pressure Humidity
00:00 +12°C° 0 mm 4 mps 758 mmHg 93%
01:00 +12°C° 0 mm 4 mps 758 mmHg 92%
02:00 +11°C° 0 mm 4 mps 758 mmHg 91%
03:00 +10°C° 0 mm 4 mps 758 mmHg 90%
04:00 +11°C° 0 mm 4 mps 758 mmHg 89%
05:00 +11°C° 0 mm 4 mps 758 mmHg 88%
06:00 +12°C° 0 mm 5 mps 758 mmHg 87%
07:00 +13°C° 0 mm 4 mps 758 mmHg 83%
08:00 +14°C° 0 mm 4 mps 758 mmHg 80%
09:00 +17°C° 0 mm 4 mps 758 mmHg 76%
10:00 +17°C° 0.1 mm 3 mps 758 mmHg 74%
11:00 +18°C° 0.1 mm 3 mps 758 mmHg 71%
12:00 +19°C° 0.1 mm 2 mps 758 mmHg 68%
13:00 +19°C° 0.1 mm 3 mps 758 mmHg 69%
14:00 +19°C° 0.1 mm 3 mps 758 mmHg 70%
15:00 +19°C° 0.1 mm 4 mps 758 mmHg 71%
16:00 +18°C° 0 mm 4 mps 757 mmHg 72%
17:00 +17°C° 0 mm 5 mps 757 mmHg 72%
18:00 +16°C° 0 mm 5 mps 757 mmHg 73%
19:00 +15°C° 0 mm 5 mps 757 mmHg 75%
20:00 +14°C° 0 mm 5 mps 757 mmHg 77%
21:00 +13°C° 0 mm 5 mps 757 mmHg 79%
22:00 +13°C° 0 mm 5 mps 757 mmHg 82%
23:00 +13°C° 0 mm 5 mps 756 mmHg 85%
Show more